Weather in Kohtla-Jarve

Estonia     59°23′47″N   27°15′21″E
temp.,
°C
wind,
m/s
gust,
m/s
humid.,
%
clouds,
%
prec.,
mm/h
press.,
hPa
HPBL,
m
25 july, sun
sun2500:00+16wsw456216 0.0 1017223
03:00+15wsw566745 0.0 1017185
06:00+15wsw56745 0.0 1018170
09:00+18wsw446615 0.0 1018325
12:00+19nnw33657 0.0 1019502
15:00+20nnw226749 0.0 1019228
18:00+20nnw22615 0.0 1019160
21:00+19sw22665 0.0 101930
26 july, mon
mon2600:00+18w23726 0.0 102046
03:00+18ssw337219 0.0 102059
06:00+17sw337212 0.0 102185
09:00+20wsw226557 0.0 1021136
12:00+22n22593 0.0 1021453
15:00+22nne33600 0.0 1021190
18:00+22ene22620 0.0 1020144
21:00+21se22660 0.0 102012
27 july, tue
tue2700:00+20sse33690 0.0 102032
03:00+19sse22715 0.0 102030
06:00+19sse23717 0.0 102043
09:00+22se33655 0.0 1019132
12:00+24e34563 0.0 1018628
15:00+24ene455919 0.0 1017757
18:00+23ene45615 0.0 1016189
21:00+21ene56712 0.0 101454
28 july, wed
wed2800:00+21se456712 0.0 101456
03:00+20se47735 0.0 101291
06:00+19se4876100 0.0 1010133
09:00+22se576989 0.0 1009208
12:00+21s4783100 0.1 1009233
15:00+20se469298 1.1 1008191
18:00+21ssw4686100 4.1 1007195
21:00+20wsw359132 9.8 100675
29 july, thu
thu2900:00+19wsw359240 0.2 100682
03:00+18wsw589117 0.2 1005216
06:00+17sw589192 0.0 1004230
09:00+19sw61087100 0.0 1004393
12:00+19sw61086100 0.9 1003400
15:00+21w811760 2.8 1002624
18:00+20wnw9128010 1.0 1002550
21:00+19w912820 1.1 1002581